Location: Shades State Park
(39.9310°N, 87.0690°W)
Time: 02:19:58
(UTC-04:00)

Daily predictions for brighter satellites

Satellite Brightness Start Highest point End
(mag) Time Altitude Azimuth Time Altitude Azimuth Time Altitude Azimuth
CZ-4C R/B 4.1 03:57:54 25° NNE 03:57:54 25° NNE 04:00:27 10° NNE
Cosmos 2297 Rocket 4.2 04:03:37 22° N 04:03:37 22° N 04:05:33 10° NNE
CZ-2D R/B 4.1 04:06:22 10° NNE 04:08:08 22° NNE 04:08:08 22° NNE
SL-16 R/B 4.4 04:32:47 18° NNW 04:32:47 18° NNW 04:34:15 10° NNW
Cosmos 1603 4.5 04:32:16 10° NNW 04:37:44 48° ENE 04:43:12 10° SE
Atlas Centaur 2 4.2 04:46:12 17° SE 04:46:12 17° SE 04:48:02 10° ESE
Cosmos 1954 Rocket 4.4 04:55:01 60° ENE 04:55:01 60° ENE 04:59:39 10° NNE
Cosmos 2227 4.4 04:56:38 66° NNE 04:56:38 66° NNE 05:01:27 10° NNE
Cosmos 676 Rocket 4.4 04:58:27 59° NNE 04:58:27 59° NNE 05:02:45 10° NNE
ARIANE 5 R/B 4.2 04:53:29 10° N 04:55:39 24° NNW 04:55:39 24° NNW
Okean O Rocket 4.0 04:58:01 10° NE 05:01:15 20° E 05:04:04 12° SE
Cosmos 2227 Rocket 4.3 05:03:11 14° NNW 05:03:11 14° NNW 05:04:55 10° NNW
Cosmos 1943 4.4 04:57:21 10° N 05:02:43 40° ENE 05:08:02 10° SE
Cosmos 1655 Rocket 3.8 04:56:38 10° N 05:02:59 84° W 05:02:59 84° W
Cosmos 614 Rocket 4.2 05:06:04 63° ESE 05:06:04 63° ESE 05:11:06 10° NNE
Cosmos 1428 Rocket 4.3 05:01:53 10° N 05:08:03 79° W 05:08:03 79° W
ADEOS II 2.7 05:04:37 10° NNE 05:09:47 53° E 05:11:27 38° SSE
Cosmos 2263 Rocket 3.0 05:11:24 31° SSE 05:13:37 47° ESE 05:19:02 10° NE
Okean 1 Rocket 4.3 05:12:33 10° N 05:15:05 33° N 05:15:05 33° N
DELTA 2 R/B (1) 3.4 05:19:29 81° SW 05:19:41 84° S 05:25:17 10° E
SL-24 DEB 4.4 05:16:33 10° N 05:21:21 71° E 05:22:18 55° SSE
Cosmos 1437 Rocket 4.4 05:18:20 10° N 05:21:55 33° ENE 05:25:33 10° SE
Resurs 1-4 Rocket 4.0 05:18:29 10° NNW 05:20:20 17° NNW 05:20:20 17° NNW
Cosmos 2084 4.4 05:26:06 36° SE 05:26:06 36° SE 05:28:36 10° SE
BREEZE-M R/B 4.1 05:35:48 38° SE 05:36:02 39° SE 05:41:48 10° ENE
Cosmos 1812 3.7 05:40:57 37° NNW 05:40:57 37° NNW 05:43:29 10° N
Cosmos 2279 Rocket 4.4 05:41:14 39° WNW 05:41:17 39° WNW 05:47:03 10° N
Cosmos 1607 3.9 05:38:46 35° SSW 05:41:37 83° ESE 05:48:01 10° NNE
ATLAS 3B R/B 4.1 05:35:16 10° S 05:41:57 37° ESE 05:48:26 10° NE
Tiangong 1 2.9 05:43:14 27° ENE 05:43:14 27° ENE 05:44:45 10° E
CZ-4C R/B 4.1 05:43:05 14° NW 05:44:26 15° NNW 05:47:57 10° N
CZ-3 R/B 3.8 05:35:17 22° SW 05:46:41 37° S 05:53:47 10° ESE
CZ-4B R/B 3.8 05:42:33 10° NNE 05:47:45 55° E 05:52:57 10° S
CZ-2D R/B 4.2 05:48:55 10° NW 05:49:27 11° NW 05:49:27 11° NW
ISS -1.4 05:54:23 14° SSE 05:54:23 14° SSE 05:55:01 10° SSE
PSLV R/B 3.3 05:49:02 10° N 05:53:15 84° WNW 05:55:04 33° SSW
Abrixas rocket 2.6 05:55:09 52° NNW 05:55:09 52° NNW 05:58:10 10° NE
Cosmos 1544 Rocket 4.3 05:51:24 10° N 05:55:39 53° E 05:59:54 10° SSE
Cosmos 1975 Rocket 3.0 05:54:22 40° SSW 05:55:50 67° W 06:00:15 10° N
Cosmos 1500 3.0 05:55:42 10° NNW 05:59:25 61° W 06:00:31 40° SSW
Cosmos 1741 Rocket 3.9 05:59:44 28° SW 06:02:28 68° WNW 06:07:42 10° NNE
ASTEX 1 3.7 05:58:34 10° N 06:03:12 42° WNW 06:04:46 33° WSW
Cosmos 1975 2.8 05:59:10 10° N 06:03:17 89° WNW 06:07:23 10° S
Cosmos 1455 Rocket 3.6 05:59:25 10° N 06:03:42 58° E 06:07:57 10° SSE
USA 215 4.3 06:07:07 10° E 06:13:14 44° NNE 06:19:22 10° NW
Okean 1 3.5 06:11:49 31° SW 06:13:19 48° W 06:17:11 10° N
PSLV R/B 4.4 06:12:30 10° N 06:16:03 35° WNW 06:16:48 32° W
CZ-2C R/B 4.1 06:13:11 10° SSE 06:17:49 69° ENE 06:22:32 10° N
Cosmos 468 Rocket 4.4 06:15:06 10° NNW 06:20:25 67° ENE 06:25:41 10° SSE
CZ-4B R/B 3.4 06:16:42 10° N 06:20:32 37° WNW 06:22:09 26° WSW
Cosmos 1536 Rocket 3.8 06:16:51 10° S 06:21:09 68° E 06:25:28 10° NNE
CZ-4B DEB 4.2 06:17:13 10° N 06:22:38 66° WNW 06:28:02 10° SSW
GEOS 3 Rocket 4.5 06:18:53 10° ESE 06:23:53 52° NE 06:29:01 10° NNW
Cosmos 1850 Rocket 4.5 06:21:25 21° SW 06:24:37 41° WNW 06:29:39 10° N
Meteor 1-31 Rocket 2.8 06:21:45 10° NNE 06:25:39 85° ESE 06:29:30 10° SSW
Atlas Centaur 2 3.2 06:28:50 15° SW 06:32:23 28° S 06:36:24 10° ESE
Landsat 4 3.7 06:32:30 10° S 06:36:15 57° W 06:40:02 10° NNW
CZ-4B R/B 3.7 06:33:37 10° N 06:37:29 73° WNW 06:41:31 10° SSW
Okean O Rocket 2.3 06:33:46 10° N 06:37:41 33° WNW 06:41:31 10° SW
Cosmos 1666 2.5 06:37:23 10° NNW 06:41:08 70° W 06:44:54 10° S
S3M 4.2 06:35:34 10° S 06:41:47 78° E 06:48:08 10° N
Intercosmos 25 Rocket 3.9 06:38:13 10° SSW 06:42:38 37° W 06:45:53 10° NNW
Cosmos 1763 Rocket 4.2 06:37:36 10° NNW 06:42:51 60° ENE 06:48:05 10° SSE
Cosmos 1743 3.0 06:42:27 10° NNW 06:46:12 45° W 06:49:55 10° SSW
Cosmos 1943 4.0 06:41:48 10° NW 06:46:33 28° WSW 06:51:15 10° SSW
IRS-1C Rocket 4.4 06:43:11 10° N 06:48:12 45° WNW 06:53:12 10° SW
USA 238 DEB 3.9 06:41:31 10° SSW 06:48:27 83° ESE 06:55:28 10° NE
USA 238 3.9 06:41:38 10° SSW 06:48:34 82° ESE 06:55:35 10° NE
ADEOS II 3.5 06:45:24 10° NNW 06:49:03 19° WNW 06:52:24 11° WSW
Cosmos 1844 Rocket 3.2 06:44:15 10° S 06:49:49 64° ESE 06:55:26 10° NNE
SL-8 R/B 4.2 06:47:29 13° W 06:51:32 48° NNW 06:56:11 10° NE
MTI 3.8 06:49:16 10° S 06:52:27 60° W 06:55:42 10° NNW
Feng Yun 1-1 Rocket 4.3 06:47:11 10° NNE 06:52:36 84° ESE 06:58:02 10° SSW
Cosmos 2263 Rocket 3.3 06:53:09 10° WSW 06:57:44 26° NW 07:02:28 10° N
Cosmos 1437 Rocket 4.4 06:55:33 10° NW 06:57:54 15° W 07:00:16 10° SW
Meteor 1-13 Rocket 4.5 06:52:31 10° SSW 06:58:21 56° WNW 07:04:11 10° N
USA 116 3.5 06:55:49 10° S 06:59:01 43° W 07:02:03 10° NNW
Cosmos 1025 Rocket 3.8 06:55:24 10° S 06:59:35 57° E 07:03:47 10° NNE
Cosmos 389 Rocket 4.3 06:59:09 10° N 07:02:23 36° ENE 07:05:37 10° SE
DELTA 2 R/B (1) 3.6 07:00:34 10° W 07:06:09 79° SSW 07:11:43 10° ESE
COSMO-SKYMED 1 2.6 07:03:23 10° SSE 07:07:43 88° WSW 07:12:05 10° NNW
BREEZE-M DEB (TANK) 2.5 07:03:58 10° NW 07:07:59 72° NNE 07:10:20 10° ESE
Meteor 1-28 Rocket 3.3 07:04:40 10° S 07:08:18 50° W 07:11:57 10° NNW
